IQ1GE Weather Reports


Display with metric or nautical units.
time (UTC)temp
F
wind
direction
speed
MPH
gust
MPH
rain 1hr
in
rain 24hr
in
rain mn
in
humidity
%
barometer
mb
20260905095932 81 195 0.0 0.0 0.00 0.00 0.00 74 1020.5
20260905095432 81 193 0.0 0.0 0.00 0.00 0.00 75 1020.5
20260905094929 81 189 0.0 0.0 0.00 0.00 0.00 74 1020.5
20260905094435 82 218 0.0 0.0 0.00 0.00 0.00 74 1020.5
20260905093929 82 228 0.0 0.0 0.00 0.00 0.00 74 1020.5
20260905093429 82 198 0.0 0.0 0.00 0.00 0.00 74 1020.4
20260905092932 81 210 0.0 0.0 0.00 0.00 0.00 74 1020.3
20260905092429 81 221 0.0 0.0 0.00 0.00 0.00 74 1020.3
20260905091929 81 219 0.0 0.0 0.00 0.00 0.00 74 1020.3
20260905091429 81 266 0.0 0.0 0.00 0.00 0.00 74 1020.4
20260905090929 81 233 0.0 0.0 0.00 0.00 0.00 75 1020.2
20260905090438 81 221 0.0 0.0 0.00 0.00 0.00 75 1020.3
20260905085929 81 224 0.0 0.0 0.00 0.00 0.00 75 1020.3
20260905085432 81 220 0.0 0.0 0.00 0.00 0.00 75 1020.3
20260905084929 80 220 0.0 0.0 0.00 0.00 0.00 75 1020.2
20260905084432 80 132 0.0 0.0 0.00 0.00 0.00 75 1020.1
20260905083929 80 133 0.0 0.0 0.00 0.00 0.00 75 1020.0
20260905083429 80 132 0.0 0.0 0.00 0.00 0.00 75 1020.1
20260905082929 80 133 0.0 0.0 0.00 0.00 0.00 75 1020.0
20260905082429 80 132 0.0 0.0 0.00 0.00 0.00 76 1019.9
20260905081932 80 129 0.0 0.0 0.00 0.00 0.00 76 1019.9
20260905081429 79 129 0.0 0.0 0.00 0.00 0.00 77 1019.9
20260905080932 79 123 0.0 0.0 0.00 0.00 0.00 77 1019.8
20260905080429 79 125 0.0 0.0 0.00 0.00 0.00 77 1019.8
20260905075929 79 122 0.0 0.0 0.00 0.00 0.00 78 1019.8
20260905075432 79 123 0.0 0.0 0.00 0.00 0.00 78 1019.8
20260905074929 78 39 0.0 0.0 0.00 0.00 0.00 78 1019.8
20260905074429 78 40 0.0 0.0 0.00 0.00 0.00 78 1019.8
20260905073932 78 35 0.0 0.0 0.00 0.00 0.00 78 1019.8
20260905073429 78 25 0.0 0.0 0.00 0.00 0.00 78 1019.8
20260905072929 78 41 0.0 0.0 0.00 0.00 0.00 78 1019.9
20260905072429 78 52 0.0 0.0 0.00 0.00 0.00 78 1019.7
20260905071935 78 48 0.0 0.0 0.00 0.00 0.00 78 1019.7
20260905071429 78 52 0.0 0.0 0.00 0.00 0.00 77 1019.7
20260905070938 78 72 0.0 0.0 0.00 0.00 0.00 77 1019.7
20260905070429 78 71 0.0 0.0 0.00 0.00 0.00 77 1019.6
20260905065929 78 79 0.0 0.0 0.00 0.00 0.00 77 1019.6
20260905065432 78 41 0.0 0.0 0.00 0.00 0.00 77 1019.6
20260905064929 78 73 0.0 0.0 0.00 0.00 0.00 77 1019.5
20260905064429 78 93 0.0 0.0 0.00 0.00 0.00 77 1019.6
20260905063932 78 64 0.0 0.0 0.00 0.00 0.00 77 1019.5
20260905063429 78 33 0.0 0.0 0.00 0.00 0.00 77 1019.6
20260905062932 78 110 0.0 0.0 0.00 0.00 0.00 77 1019.6
20260905062429 78 103 0.0 0.0 0.00 0.00 0.00 76 1019.5
20260905061929 78 97 0.0 0.0 0.00 0.00 0.00 76 1019.4
20260905061432 78 112 0.0 0.0 0.00 0.00 0.00 76 1019.4
20260905060929 78 104 0.0 0.0 0.00 0.00 0.00 76 1019.5
20260905060429 78 35 0.0 0.0 0.00 0.00 0.00 76 1019.4
20260905055932 78 39 0.0 0.0 0.00 0.00 0.00 76 1019.3
20260905055429 78 123 0.0 0.0 0.00 0.00 0.00 76 1019.3
20260905054935 78 123 0.0 0.0 0.00 0.00 0.00 76 1019.1
20260905054432 78 104 0.0 0.0 0.00 0.00 0.00 75 1019.3
20260905053929 78 48 0.0 0.0 0.00 0.00 0.00 75 1019.2
20260905053432 78 51 0.0 0.0 0.00 0.00 0.00 75 1019.3
20260905052938 77 49 0.0 0.0 0.00 0.00 0.00 74 1019.2
20260905052429 77 61 0.0 0.0 0.00 0.00 0.00 74 1019.1
20260905051929 77 101 0.0 0.0 0.00 0.00 0.00 75 1019.1
20260905051429 77 83 0.0 0.0 0.00 0.00 0.00 74 1019.1
20260905050932 77 74 0.0 0.0 0.00 0.00 0.00 74 1019.0
20260905050435 77 85 0.0 0.0 0.00 0.00 0.00 74 1019.0
20260905045938 77 87 0.0 0.0 0.00 0.00 0.00 75 1018.8
20260905045429 77 62 0.0 0.0 0.00 0.00 0.00 75 1018.8
20260905044929 77 75 0.0 0.0 0.00 0.00 0.00 76 1018.9
20260905044432 77 76 0.0 0.0 0.00 0.00 0.00 77 1018.9
20260905043932 77 47 0.0 0.0 0.00 0.00 0.00 78 1018.8
20260905043435 77 359 0.0 0.0 0.00 0.00 0.00 78 1018.8
20260905042929 77 81 0.0 0.0 0.00 0.00 0.00 77 1018.8
20260905042429 77 77 0.0 0.0 0.00 0.00 0.00 78 1018.7
20260905041932 77 68 0.0 0.0 0.00 0.00 0.00 78 1018.7
20260905041435 77 110 0.0 0.0 0.00 0.00 0.00 78 1018.7
20260905040929 77 73 0.0 0.0 0.00 0.00 0.00 78 1018.8
20260905040432 77 88 0.0 0.0 0.00 0.00 0.00 78 1019.0
20260905035929 77 80 0.0 0.0 0.00 0.00 0.00 78 1019.0
20260905035432 77 56 0.0 0.0 0.00 0.00 0.00 78 1019.0
20260905034936 77 49 0.0 0.0 0.00 0.00 0.00 78 1018.8
20260905034429 77 51 0.0 0.0 0.00 0.00 0.00 78 1019.0
20260905033933 77 52 0.0 0.0 0.00 0.00 0.00 78 1019.0
20260905033429 77 51 0.0 0.0 0.00 0.00 0.00 78 1018.9
20260905032932 77 33 0.0 0.0 0.00 0.00 0.00 78 1018.9
20260905032429 77 112 0.0 0.0 0.00 0.00 0.00 79 1019.0
20260905031932 77 91 0.0 0.0 0.00 0.00 0.00 79 1019.1
20260905031430 77 90 0.0 0.0 0.00 0.00 0.00 80 1019.1
20260905030933 77 90 0.0 0.0 0.00 0.00 0.00 80 1019.2
20260905030430 77 112 0.0 0.0 0.00 0.00 0.00 80 1019.1
20260905025933 77 87 0.0 0.0 0.00 0.00 0.00 80 1019.1
20260905025430 77 82 0.0 0.0 0.00 0.00 0.00 80 1019.1
20260905024933 77 100 0.0 0.0 0.00 0.00 0.00 80 1019.1
20260905024433 77 100 0.0 0.0 0.00 0.00 0.00 80 1019.1
20260905023930 77 106 0.0 0.0 0.00 0.00 0.00 80 1019.1
20260905023433 77 86 0.0 0.0 0.00 0.00 0.00 81 1019.2
20260905022936 77 103 0.0 0.0 0.00 0.00 0.00 81 1019.3
20260905022430 77 120 0.0 0.0 0.00 0.00 0.00 81 1019.3
20260905021930 77 97 0.0 0.0 0.00 0.00 0.00 81 1019.3
20260905021430 77 88 0.0 0.0 0.00 0.00 0.00 81 1019.3
20260905020933 77 91 0.0 0.0 0.00 0.00 0.00 82 1019.3
20260905020427 77 97 0.0 0.0 0.00 0.00 0.00 82 1019.4
20260905015930 77 81 0.0 0.0 0.00 0.00 0.00 82 1019.4
20260905015433 77 77 0.0 0.0 0.00 0.00 0.00 82 1019.5
20260905014927 77 81 0.0 0.0 0.00 0.00 0.00 82 1019.4
20260905014427 77 80 0.0 0.0 0.00 0.00 0.00 82 1019.5
20260905013930 77 81 0.0 0.0 0.00 0.00 0.00 81 1019.5
20260905013430 77 97 0.0 0.0 0.00 0.00 0.00 81 1019.4
20260905012927 77 97 0.0 0.0 0.00 0.00 0.00 82 1019.5
20260905012427 77 81 0.0 0.0 0.00 0.00 0.00 82 1019.4
20260905011933 77 98 0.0 0.0 0.00 0.00 0.00 82 1019.5
20260905011436 77 92 0.0 0.0 0.00 0.00 0.00 82 1019.5
20260905010927 77 89 0.0 0.0 0.00 0.00 0.00 82 1019.5
20260905010427 77 87 0.0 0.0 0.00 0.00 0.00 82 1019.5
20260905005930 77 89 0.0 0.0 0.00 0.00 0.00 82 1019.5
20260905005427 77 90 0.0 0.0 0.00 0.00 0.00 81 1019.5
20260905004927 77 93 0.0 0.0 0.00 0.00 0.00 81 1019.4
20260905004433 77 107 0.0 0.0 0.00 0.00 0.00 81 1019.4
20260905003927 77 77 0.0 0.0 0.00 0.00 0.00 81 1019.4
20260905003427 77 82 0.0 0.0 0.00 0.00 0.00 82 1019.4
20260905002930 77 67 0.0 0.0 0.00 0.00 0.00 82 1019.4
20260905002433 77 100 0.0 0.0 0.00 0.00 0.00 82 1019.6
20260905001936 78 97 0.0 0.0 0.00 0.00 0.00 81 1019.7
20260905001427 78 83 0.0 0.0 0.00 0.00 0.00 81 1019.7
20260905000930 78 83 0.0 0.0 0.00 0.00 0.00 81 1019.7
20260905000433 78 79 0.0 0.0 0.00 0.00 0.00 81 1019.7
20260904235927 78 81 0.0 0.0 0.00 0.00 0.00 80 1019.8
20260904235430 78 81 0.0 0.0 0.00 0.00 0.00 80 1019.9
20260904234927 78 95 0.0 0.0 0.00 0.00 0.00 80 1020.0
20260904234430 78 89 0.0 0.0 0.00 0.00 0.00 79 1020.0
20260904233933 78 78 0.0 0.0 0.00 0.00 0.00 79 1020.0
20260904233427 78 83 0.0 0.0 0.00 0.00 0.00 79 1020.0
20260904232930 77 79 0.0 0.0 0.00 0.00 0.00 78 1020.0
20260904232427 77 85 0.0 0.0 0.00 0.00 0.00 78 1020.1
20260904231930 77 120 0.0 0.0 0.00 0.00 0.00 78 1020.1
20260904231436 77 91 0.0 0.0 0.00 0.00 0.00 79 1019.9
20260904230927 78 91 0.0 0.0 0.00 0.00 0.00 79 1020.0
20260904230427 78 110 0.0 0.0 0.00 0.00 0.00 79 1019.9
20260904225933 78 87 0.0 0.0 0.00 0.00 0.00 80 1020.0
20260904225427 78 84 0.0 0.0 0.00 0.00 0.00 80 1020.0
20260904224927 78 85 0.0 0.0 0.00 0.00 0.00 80 1020.1
20260904224433 78 85 0.0 0.0 0.00 0.00 0.00 80 1020.1
20260904223927 78 84 0.0 0.0 0.00 0.00 0.00 79 1020.1
20260904223427 78 85 0.0 0.0 0.00 0.00 0.00 79 1020.1
20260904222930 78 85 0.0 0.0 0.00 0.00 0.00 79 1020.1
20260904222433 78 87 0.0 0.0 0.00 0.00 0.00 79 1020.2
20260904221936 78 85 0.0 0.0 0.00 0.00 0.00 79 1020.1
20260904221427 78 93 0.0 0.0 0.00 0.00 0.00 78 1020.0
20260904220930 78 62 0.0 0.0 0.00 0.00 0.00 78 1020.0
20260904220427 78 40 0.0 0.0 0.00 0.00 0.00 78 1019.9
20260904215930 78 27 0.0 0.0 0.00 0.00 0.00 79 1020.0
20260904215433 78 194 0.0 0.0 0.00 0.00 0.00 79 1020.0
20260904214930 78 194 0.0 0.0 0.00 0.00 0.00 78 1020.1
20260904214427 78 194 0.0 0.0 0.00 0.00 0.00 78 1020.1
20260904213927 78 194 0.0 0.0 0.00 0.00 0.00 78 1020.2
20260904213430 79 194 0.0 0.0 0.00 0.00 0.00 78 1020.2
20260904212930 79 194 0.0 0.0 0.00 0.00 0.00 78 1020.3
20260904212427 79 194 0.0 0.0 0.00 0.00 0.00 78 1020.2
20260904211927 79 194 0.0 0.0 0.00 0.00 0.00 78 1020.2
20260904211427 79 194 0.0 0.0 0.00 0.00 0.00 78 1020.2
20260904210930 79 194 0.0 0.0 0.00 0.00 0.00 78 1020.2
20260904210427 79 194 0.0 0.0 0.00 0.00 0.00 77 1020.3
20260904205930 79 194 0.0 0.0 0.00 0.00 0.00 77 1020.3
20260904205430 79 194 0.0 0.0 0.00 0.00 0.00 77 1020.3
20260904204930 79 194 0.0 0.0 0.00 0.00 0.00 77 1020.3
20260904204427 79 194 0.0 0.0 0.00 0.00 0.00 76 1020.3
20260904203933 79 194 0.0 0.0 0.00 0.00 0.00 76 1020.3
20260904203430 79 194 0.0 0.0 0.00 0.00 0.00 76 1020.3
20260904202930 79 197 0.0 0.0 0.00 0.00 0.00 77 1020.3
20260904202430 79 197 0.0 0.0 0.00 0.00 0.00 77 1020.4
20260904201927 80 197 0.0 0.0 0.00 0.00 0.00 76 1020.4
20260904201427 80 197 0.0 0.0 0.00 0.00 0.00 76 1020.4
20260904200930 80 197 0.0 0.0 0.00 0.00 0.00 77 1020.4
20260904200433 80 197 0.0 0.0 0.00 0.00 0.00 76 1020.4
20260904195927 80 198 0.0 0.0 0.00 0.00 0.00 76 1020.4
20260904195427 80 198 0.0 0.0 0.00 0.00 0.00 76 1020.4
20260904194927 80 199 0.0 0.0 0.00 0.00 0.00 76 1020.4
20260904194430 80 199 0.0 0.0 0.00 0.00 0.00 75 1020.3
20260904193930 80 199 0.0 0.0 0.00 0.00 0.00 75 1020.3
20260904193427 80 195 0.0 0.0 0.00 0.00 0.00 75 1020.2
20260904192930 80 208 0.0 0.0 0.00 0.00 0.00 74 1020.2
20260904192427 80 206 0.0 0.0 0.00 0.00 0.00 74 1020.2
20260904191927 80 206 0.0 0.0 0.00 0.00 0.00 74 1020.2
20260904191433 80 206 0.0 0.0 0.00 0.00 0.00 74 1020.1
20260904190927 80 206 0.0 0.0 0.00 0.00 0.00 73 1020.1
20260904190436 80 206 0.0 0.0 0.00 0.00 0.00 74 1020.0
20260904185933 80 206 0.0 0.0 0.00 0.00 0.00 74 1020.1
20260904185427 80 206 0.0 0.0 0.00 0.00 0.00 74 1019.9
20260904184930 80 206 0.0 0.0 0.00 0.00 0.00 74 1019.9
20260904184427 81 206 0.0 0.0 0.00 0.00 0.00 74 1019.8
20260904183927 81 199 0.0 0.0 0.00 0.00 0.00 74 1019.8
20260904183430 81 199 0.0 0.0 0.00 0.00 0.00 74 1019.8
20260904182927 81 201 0.0 0.0 0.00 0.00 0.00 74 1019.8
20260904182430 81 200 0.0 0.0 0.00 0.00 0.00 74 1019.8
20260904181927 81 200 0.0 0.0 0.00 0.00 0.00 73 1019.7
20260904181430 81 217 0.0 0.0 0.00 0.00 0.00 73 1019.7
20260904180930 82 218 0.0 0.0 0.00 0.00 0.00 72 1019.7
20260904180433 82 218 0.0 0.0 0.00 0.00 0.00 72 1019.6
20260904175927 82 160 0.0 0.0 0.00 0.00 0.00 71 1019.6
20260904175433 83 248 0.0 0.0 0.00 0.00 0.00 70 1019.6
20260904174928 83 250 0.0 0.0 0.00 0.00 0.00 68 1019.6
20260904174428 83 214 0.0 0.0 0.00 0.00 0.00 66 1019.6
20260904173927 84 206 0.0 0.0 0.00 0.00 0.00 66 1019.6
20260904173428 84 206 0.0 0.0 0.00 0.00 0.00 65 1019.6
20260904172928 84 206 0.0 0.0 0.00 0.00 0.00 65 1019.6
20260904172428 84 207 0.0 0.0 0.00 0.00 0.00 65 1019.6
20260904171931 84 208 0.0 0.0 0.00 0.00 0.00 67 1019.6
20260904171428 84 225 0.0 0.0 0.00 0.00 0.00 65 1019.7
20260904170928 84 218 0.0 0.0 0.00 0.00 0.00 67 1019.7
20260904170431 84 230 0.0 0.0 0.00 0.00 0.00 67 1019.7
20260904165927 84 215 0.0 0.0 0.00 0.00 0.00 67 1019.8
20260904165428 84 234 0.0 0.0 0.00 0.00 0.00 67 1019.8
20260904164928 84 224 0.0 0.0 0.00 0.00 0.00 67 1019.8
20260904164431 84 220 0.0 0.0 0.00 0.00 0.00 67 1019.8
20260904163928 84 247 0.0 0.0 0.00 0.00 0.00 68 1019.8
20260904163428 84 233 0.0 0.0 0.00 0.00 0.00 68 1019.9
20260904162928 84 204 0.0 0.0 0.00 0.00 0.00 68 1019.9
20260904162431 84 219 0.0 0.0 0.00 0.00 0.00 69 1020.0
20260904161928 84 214 0.0 0.0 0.00 0.00 0.00 70 1020.0
20260904161431 84 241 0.0 0.0 0.00 0.00 0.00 70 1020.0
20260904160931 83 228 0.0 0.0 0.00 0.00 0.00 70 1020.0
20260904160431 84 236 0.0 0.0 0.00 0.00 0.00 69 1020.1
20260904155934 84 218 0.0 0.0 0.00 0.00 0.00 69 1020.1
20260904155434 84 248 0.0 0.0 0.00 0.00 0.00 69 1020.1
20260904154937 84 216 0.0 0.0 0.00 0.00 0.00 70 1020.0
20260904154431 84 233 0.0 0.0 0.00 0.00 0.00 70 1020.1
20260904153928 84 216 0.0 0.0 0.00 0.00 0.00 71 1020.1
20260904153437 84 229 0.0 0.0 0.00 0.00 0.00 71 1020.1
20260904152928 84 220 0.0 0.0 0.00 0.00 0.00 71 1020.2
20260904152431 85 206 0.0 0.0 0.00 0.00 0.00 70 1020.2
20260904151928 85 242 0.0 0.0 0.00 0.00 0.00 70 1020.1
20260904151431 85 199 0.0 0.0 0.00 0.00 0.00 69 1020.1
20260904150928 85 133 0.0 0.0 0.00 0.00 0.00 69 1020.2
20260904150431 85 137 0.0 0.0 0.00 0.00 0.00 68 1020.3
20260904145934 86 243 0.0 0.0 0.00 0.00 0.00 71 1020.3
20260904145428 85 229 0.0 0.0 0.00 0.00 0.00 70 1020.3
20260904144928 85 227 0.0 0.0 0.00 0.00 0.00 70 1020.3
20260904144431 85 226 0.0 0.0 0.00 0.00 0.00 72 1020.3
20260904143928 85 206 0.0 0.0 0.00 0.00 0.00 72 1020.4
20260904143428 85 205 0.0 0.0 0.00 0.00 0.00 73 1020.4
20260904142931 85 230 0.0 0.0 0.00 0.00 0.00 71 1020.5
20260904142431 85 192 0.0 0.0 0.00 0.00 0.00 73 1020.5
20260904141928 85 252 0.0 0.0 0.00 0.00 0.00 72 1020.6
20260904141428 85 207 0.0 0.0 0.00 0.00 0.00 71 1020.6
20260904140928 85 218 0.0 0.0 0.00 0.00 0.00 72 1020.7
20260904140431 84 226 0.0 0.0 0.00 0.00 0.00 72 1020.6
20260904135931 84 264 0.0 0.0 0.00 0.00 0.00 71 1020.7
20260904135428 85 231 0.0 0.0 0.00 0.00 0.00 69 1020.7
20260904134928 85 210 0.0 0.0 0.00 0.00 0.00 68 1020.7
20260904134428 86 231 0.0 0.0 0.00 0.00 0.00 68 1020.7
20260904133931 85 193 0.0 0.0 0.00 0.00 0.00 67 1020.6
20260904133428 85 188 0.0 0.0 0.00 0.00 0.00 70 1020.5
20260904132928 85 228 0.0 0.0 0.00 0.00 0.00 67 1020.6
20260904132428 85 291 0.0 0.0 0.00 0.00 0.00 69 1020.6
20260904131931 85 244 0.0 0.0 0.00 0.00 0.00 71 1020.6
20260904131428 84 127 0.0 0.0 0.00 0.00 0.00 73 1020.6
20260904130931 84 219 0.0 0.0 0.00 0.00 0.00 72 1020.6
20260904130428 84 249 0.0 0.0 0.00 0.00 0.00 72 1020.7
20260904125928 84 205 0.0 0.0 0.00 0.00 0.00 72 1020.8
20260904125428 84 251 0.0 0.0 0.00 0.00 0.00 72 1020.8
20260904124931 84 199 0.0 0.0 0.00 0.00 0.00 72 1020.7
20260904124428 84 271 0.0 0.0 0.00 0.00 0.00 72 1020.8
20260904123931 83 235 0.0 0.0 0.00 0.00 0.00 74 1020.9
20260904123428 83 220 0.0 0.0 0.00 0.00 0.00 75 1020.9
20260904122937 83 95 0.0 0.0 0.00 0.00 0.00 73 1021.0
20260904122428 84 228 0.0 0.0 0.00 0.00 0.00 75 1021.0
20260904121931 84 235 0.0 0.0 0.00 0.00 0.00 73 1021.0
20260904121434 84 216 0.0 0.0 0.00 0.00 0.00 75 1021.1
20260904120928 84 225 0.0 0.0 0.00 0.00 0.00 75 1021.0
20260904120428 84 253 0.0 0.0 0.00 0.00 0.00 76 1021.1
20260904115931 84 194 0.0 0.0 0.00 0.00 0.00 73 1021.0
20260904115434 84 206 0.0 0.0 0.00 0.00 0.00 72 1021.0
20260904114928 84 243 0.0 0.0 0.00 0.00 0.00 70 1021.0
20260904114434 84 251 0.0 0.0 0.00 0.00 0.00 72 1021.1
20260904113928 84 222 0.0 0.0 0.00 0.00 0.00 71 1021.1
20260904113431 84 211 0.0 0.0 0.00 0.00 0.00 69 1021.1
20260904112934 84 231 0.0 0.0 0.00 0.00 0.00 73 1021.1
20260904112428 84 214 0.0 0.0 0.00 0.00 0.00 72 1021.2
20260904111931 84 233 0.0 0.0 0.00 0.00 0.00 73 1021.2
20260904111428 84 199 0.0 0.0 0.00 0.00 0.00 74 1021.2
20260904110928 84 211 0.0 0.0 0.00 0.00 0.00 73 1021.2
20260904110431 84 187 0.0 0.0 0.00 0.00 0.00 74 1021.2
20260904105931 84 222 0.0 0.0 0.00 0.00 0.00 74 1021.2
20260904105428 83 210 0.0 0.0 0.00 0.00 0.00 74 1021.2
20260904104934 83 229 0.0 0.0 0.00 0.00 0.00 75 1021.2
20260904104428 83 172 0.0 0.0 0.00 0.00 0.00 75 1021.2
20260904103928 83 226 0.0 0.0 0.00 0.00 0.00 74 1021.3
20260904103431 83 178 0.0 0.0 0.00 0.00 0.00 74 1021.3
20260904102928 83 233 0.0 0.0 0.00 0.00 0.00 71 1021.2
20260904102428 84 245 0.0 0.0 0.00 0.00 0.00 71 1021.2
20260904101928 84 211 0.0 0.0 0.00 0.00 0.00 72 1021.2
20260904101428 84 237 0.0 0.0 0.00 0.00 0.00 69 1021.4
20260904100934 84 241 0.0 0.0 0.00 0.00 0.00 70 1021.3
20260904100428 84 208 0.0 0.0 0.00 0.00 0.00 70 1021.3